Kuwait, Kuwait

9:34 AM +03 on March 28, 2017 (GMT +0300)
Kuwait International

Weather History for OKBK - May, 2013

Change the Weather History Date:

Thursday, May 2, 2013

  Actual Average Record
Temperature  
Mean Temperature 80 °F -  
Max Temperature 90 °F 102 °F 104 °F (2001)
Min Temperature 71 °F 75 °F 68 °F (1998)
Cooling Degree Days 16    
Growing Degree Days 30 (Base 50)    
Moisture  
Dew Point 59 °F    
Average Humidity 53    
Maximum Humidity 88    
Minimum Humidity 14    
Precipitation  
Precipitation 0.00 in 0.00 in - ()
Sea Level Pressure  
Sea Level Pressure 29.70 in    
Wind  
Wind Speed 14 mph ()    
Max Wind Speed 24 mph    
Max Gust Speed -    
Visibility 5.2 miles    
Events Rain    
Averages and records for this station are not official NWS values.
T = Trace of Precipitation, MM = Missing Value Source: Averaged Metar Reports

Daily Weather History Graph

Daily Weather History Graph

Search for Another Location

Airport or City:

Trip Planner

Search our weather history database for the weather conditions in past years. The results will help you decide how hot, cold, wet, or windy it might be!

Date:

Astronomy

May. 02, 2013 Rise Set
Actual Time 5:05 AM +03 6:24 PM +03
Civil Twilight 4:40 AM +03 6:50 PM +03
Nautical Twilight 4:10 AM +03 7:20 PM +03
Astronomical Twilight 3:39 AM +03 7:51 PM +03
Moon 12:01 AM +03 (5/2) 11:23 AM +03 (5/2)
Length of Visible Light 14h 09m
Length of Day
13h 19m
Waning Gibbous, 51% of the Moon is Illuminated
May 2
Waning Gibbous
May 2
Last Quarter
May 10
New
May 18
First Quarter
May 25
Full

Hourly Weather History & Observations

Time (+03) Temp. Heat Index Dew Point Humidity Pressure Visibility Wind Dir Wind Speed Gust Speed Precip Events Conditions
12:00 AM 73.4 °F - 66.2 °F 78% 29.74 in 5.6 mi ESE 13.8 mph - N/A   Mostly Cloudy
1:00 AM 73.4 °F - 66.2 °F 78% 29.71 in 5.0 mi SE 13.8 mph - N/A Rain Light Rain
2:00 AM 73.4 °F - 68.0 °F 83% 29.68 in 4.3 mi ESE 11.5 mph - N/A   Mostly Cloudy
3:00 AM 73 °F - 69 °F 82% 29.68 in 4 mi SE 11.5 mph - -   Mist
3:00 AM 73.4 °F - 68.0 °F 83% 29.68 in 4.3 mi SE 11.5 mph - N/A   Mostly Cloudy
4:00 AM 73.4 °F - 68.0 °F 83% 29.65 in 4.3 mi SSE 15.0 mph - N/A   Mostly Cloudy
5:00 AM 71.6 °F - 68.0 °F 88% 29.65 in 4.3 mi South 10.4 mph - N/A   Mostly Cloudy
6:00 AM 71.6 °F - 64.4 °F 78% 29.68 in 5.0 mi SSW 16.1 mph - N/A   Mostly Cloudy
7:00 AM 73.4 °F - 62.6 °F 69% 29.68 in - SSW 13.8 mph - N/A   Clear
8:00 AM 77.0 °F - 59.0 °F 54% 29.74 in - WSW 19.6 mph - N/A   Clear
9:00 AM 80 °F - 57 °F 35% 29.73 in 19 mi WSW 18.4 mph - -  
9:00 AM 80.6 °F 80.8 °F 57.2 °F 45% 29.74 in - WSW 18.4 mph - N/A   Clear
10:00 AM 82.4 °F 81.4 °F 53.6 °F 37% 29.71 in - WSW 15.0 mph - N/A   Clear
11:00 AM 86.0 °F - 50.0 °F 29% 29.71 in - SW 18.4 mph - N/A   Clear
12:00 PM 87.8 °F - 48.2 °F 25% 29.68 in 3.7 mi SW 21.9 mph - N/A   Light Blowing Widespread Dust
1:00 PM 89.6 °F - 48.2 °F 24% 29.68 in 2.5 mi SW 24.2 mph - N/A   Widespread Dust
2:00 PM 89.6 °F - 46.4 °F 22% 29.68 in 3.1 mi West 20.7 mph - N/A   Widespread Dust
3:00 PM 90 °F - 47 °F 14% 29.70 in 4 mi SW 19.6 mph - -   Blowing Sand
3:00 PM 89.6 °F - 46.4 °F 22% 29.68 in 3.7 mi SW 19.6 mph - N/A   Light Blowing Widespread Dust
4:00 PM 89.6 °F - 44.6 °F 21% 29.68 in 4.3 mi WSW 17.3 mph - N/A   Unknown
5:00 PM 89.6 °F - 44.6 °F 21% 29.68 in 5.0 mi WSW 13.8 mph - N/A   Unknown
6:00 PM 78.8 °F - 62.6 °F 57% 29.68 in 5.0 mi ESE 17.3 mph - N/A   Unknown
7:00 PM 77.0 °F - 62.6 °F 61% 29.71 in - SE 17.3 mph - N/A   Clear
8:00 PM 77.0 °F - 62.6 °F 61% 29.71 in - SE 18.4 mph - N/A   Clear
9:00 PM 77 °F - 62 °F 50% 29.73 in 6 mi SE 15.0 mph - -   Partly Cloudy
9:00 PM 77.0 °F - 62.6 °F 61% 29.71 in - SE 15.0 mph - N/A   Clear
10:00 PM 77.0 °F - 64.4 °F 65% 29.71 in - SSE 15.0 mph - N/A   Clear
11:00 PM 77.0 °F - 64.4 °F 65% 29.71 in - SSE 15.0 mph - N/A   Clear